Location: Newark
(43.7000°N, 7.2664°E)
Time: 05:36:13
(UTC+00:00)

ISS - Visible Passes

Search period start: 18 November 2019 00:00
Search period end: 28 November 2019 00:00
Orbit: 412 x 421 km, 51.6° (Epoch: 18 November)

Date Brightness Start Highest point End Pass type
(mag) Time Alt. Az. Time Alt. Az. Time Alt. Az.
20 Nov -1.4 17:28:26 10° SSE 17:29:10 12° SE 17:29:10 12° SE visible
21 Nov -1.8 18:14:28 10° SW 18:16:02 24° SSW 18:16:02 24° SSW visible
22 Nov -2.8 17:26:25 10° SSW 17:29:25 31° SE 17:29:52 30° ESE visible
23 Nov -1.9 16:38:41 10° S 16:41:08 19° SE 16:43:35 10° E visible
23 Nov -2.3 18:14:15 10° WSW 18:16:31 38° W 18:16:31 38° W visible
24 Nov -3.9 17:25:46 10° SW 17:29:08 83° SE 17:30:10 41° ENE visible
25 Nov -3.3 16:37:29 10° SW 16:40:42 49° SE 16:43:46 11° ENE visible
25 Nov -1.9 18:14:29 10° W 18:16:40 28° NW 18:16:40 28° NW visible
26 Nov -3.0 17:25:45 10° W 17:28:59 44° NNW 17:30:11 30° NNE visible
27 Nov -3.6 16:37:07 10° WSW 16:40:27 67° NNW 16:43:40 11° NE visible
27 Nov -1.4 18:14:53 10° WNW 18:16:34 20° NW 18:16:34 20° NW visible
